UTA7775 USRO-USRR

Flight info

Callsign UTA7775
Flight time 0h 40m
Altitude 16000
Route DINOL2G DINOL T797 INDUS INDUS1T
Aircraft B738/M-SDE2E3FGHIRWXY/LB1

Departure

Time 2026-04-19 04:44
Airport Noyabrsk Airport (USRO)

Arrival

Time 2026-04-19 05:25
Airport Surgut International Airport (USRR)
Time Latitude Longitude Altitude Speed Heading
2026-04-19 04:32 63.18316 75.27308 454 ft 0 kts 204°
2026-04-19 04:39 63.18315 75.27307 455 ft 0 kts 205°
2026-04-19 04:40 63.18314 75.27305 455 ft 3 kts 212°
2026-04-19 04:40 63.18289 75.27176 456 ft 12 kts 292°
2026-04-19 04:41 63.18322 75.27010 456 ft 12 kts 295°
2026-04-19 04:41 63.18377 75.26899 456 ft 11 kts
2026-04-19 04:41 63.18450 75.26955 456 ft 11 kts 24°
2026-04-19 04:41 63.18565 75.27075 454 ft 22 kts 25°
2026-04-19 04:42 63.18704 75.27218 451 ft 22 kts 27°
2026-04-19 04:42 63.18834 75.27350 453 ft 21 kts 24°
2026-04-19 04:42 63.18964 75.27485 451 ft 21 kts 25°
2026-04-19 04:42 63.19095 75.27621 447 ft 21 kts 24°
2026-04-19 04:43 63.19222 75.27749 449 ft 20 kts 24°
2026-04-19 04:43 63.19322 75.27904 450 ft 16 kts 50°
2026-04-19 04:43 63.19393 75.27971 451 ft 7 kts 298°
2026-04-19 04:43 63.19387 75.27930 451 ft 8 kts 237°
2026-04-19 04:44 63.19290 75.27820 450 ft 50 kts 205°
2026-04-19 04:44 63.18621 75.27134 454 ft 156 kts 205°
2026-04-19 04:44 63.17408 75.25857 836 ft 211 kts 211°
2026-04-19 04:44 63.16139 75.24257 1402 ft 212 kts 214°
2026-04-19 04:45 63.14907 75.22242 1646 ft 229 kts 220°
2026-04-19 04:45 63.13615 75.19953 1858 ft 246 kts 221°
2026-04-19 04:45 63.12247 75.17533 2206 ft 259 kts 220°
2026-04-19 04:45 63.10816 75.15056 3360 ft 261 kts 220°
2026-04-19 04:46 63.09368 75.12574 4575 ft 266 kts 220°
2026-04-19 04:46 63.07894 75.10048 5768 ft 271 kts 220°
2026-04-19 04:46 63.06389 75.07477 6907 ft 276 kts 220°
2026-04-19 04:46 63.04855 75.04888 7993 ft 280 kts 220°
2026-04-19 04:47 63.03297 75.02270 9087 ft 284 kts 220°
2026-04-19 04:47 63.01715 74.99624 10188 ft 288 kts 220°
2026-04-19 04:47 63.00071 74.96871 10782 ft 310 kts 220°
2026-04-19 04:47 62.98284 74.93881 11236 ft 331 kts 220°
2026-04-19 04:48 62.96425 74.90789 12151 ft 337 kts 220°
2026-04-19 04:48 62.94542 74.87667 13192 ft 340 kts 220°
2026-04-19 04:48 62.92639 74.84518 14136 ft 345 kts 221°
2026-04-19 04:48 62.90733 74.81368 15064 ft 347 kts 221°
2026-04-19 04:49 62.88794 74.78164 15962 ft 351 kts 221°
2026-04-19 04:49 62.86821 74.74908 16980 ft 351 kts 222°
2026-04-19 04:49 62.84865 74.71689 17783 ft 352 kts 222°
2026-04-19 04:49 62.82914 74.68486 18018 ft 350 kts 222°
2026-04-19 04:50 62.80978 74.65331 17995 ft 350 kts 221°
2026-04-19 04:50 62.79013 74.62198 17975 ft 350 kts 221°
2026-04-19 04:50 62.77037 74.59089 17974 ft 349 kts 221°
2026-04-19 04:50 62.75070 74.55989 17974 ft 349 kts 221°
2026-04-19 04:51 62.73104 74.52856 17985 ft 350 kts 221°
2026-04-19 04:51 62.71136 74.49666 18364 ft 354 kts 222°
2026-04-19 04:51 62.69162 74.46451 18306 ft 352 kts 222°
2026-04-19 04:51 62.67207 74.43295 18304 ft 348 kts 221°
2026-04-19 04:52 62.65250 74.40171 18309 ft 348 kts 221°
2026-04-19 04:52 62.63293 74.37070 18312 ft 349 kts 221°
2026-04-19 04:52 62.61331 74.33955 18320 ft 349 kts 221°
2026-04-19 04:52 62.59376 74.30829 18326 ft 350 kts 221°
2026-04-19 04:53 62.57417 74.27699 18313 ft 350 kts 221°
2026-04-19 04:53 62.55452 74.24561 18318 ft 350 kts 221°
2026-04-19 04:53 62.53488 74.21439 18298 ft 350 kts 221°
2026-04-19 04:53 62.51524 74.18325 18312 ft 349 kts 221°
2026-04-19 04:54 62.49565 74.15226 18318 ft 348 kts 221°
2026-04-19 04:54 62.47635 74.12178 18313 ft 348 kts 221°
2026-04-19 04:54 62.45685 74.09103 18302 ft 347 kts 221°
2026-04-19 04:54 62.43737 74.06035 18322 ft 346 kts 221°
2026-04-19 04:55 62.41789 74.02972 18314 ft 346 kts 221°
2026-04-19 04:55 62.39857 73.99944 18278 ft 339 kts 221°
2026-04-19 04:55 62.37958 73.96972 17992 ft 334 kts 221°
2026-04-19 04:55 62.36082 73.94038 17643 ft 332 kts 221°
2026-04-19 04:56 62.34229 73.91143 17304 ft 327 kts 221°
2026-04-19 04:56 62.32400 73.88291 16920 ft 323 kts 221°
2026-04-19 04:56 62.30590 73.85471 16556 ft 320 kts 221°
2026-04-19 04:56 62.28790 73.82673 16187 ft 317 kts 221°
2026-04-19 04:57 62.27007 73.79908 15804 ft 315 kts 221°
2026-04-19 04:57 62.25241 73.77178 15454 ft 312 kts 221°
2026-04-19 04:57 62.23478 73.74446 15105 ft 314 kts 221°
2026-04-19 04:57 62.21705 73.71693 14740 ft 316 kts 221°
2026-04-19 04:58 62.19897 73.68887 14377 ft 327 kts 220°
2026-04-19 04:58 62.18017 73.65983 13756 ft 336 kts 220°
2026-04-19 04:58 62.16123 73.63094 13299 ft 332 kts 220°
2026-04-19 04:58 62.14259 73.60237 12987 ft 324 kts 220°
2026-04-19 04:59 62.12482 73.57389 12705 ft 316 kts 222°
2026-04-19 04:59 62.10753 73.54527 12340 ft 314 kts 222°
2026-04-19 04:59 62.09016 73.51664 11974 ft 316 kts 221°
2026-04-19 04:59 62.07260 73.48872 11597 ft 322 kts 220°
2026-04-19 05:00 62.05420 73.46040 11226 ft 332 kts 219°
2026-04-19 05:00 62.03535 73.43127 10833 ft 337 kts 220°
2026-04-19 05:00 62.01667 73.40185 10439 ft 331 kts 220°
2026-04-19 05:00 61.99847 73.37291 10216 ft 321 kts 219°
2026-04-19 05:01 61.97856 73.35307 10030 ft 316 kts 193°
2026-04-19 05:01 61.95700 73.35356 9919 ft 308 kts 168°
2026-04-19 05:01 61.93791 73.37233 9565 ft 303 kts 137°
2026-04-19 05:01 61.92659 73.40890 9290 ft 296 kts 104°
2026-04-19 05:02 61.91991 73.44998 9051 ft 299 kts 118°
2026-04-19 05:02 61.90510 73.48058 8841 ft 296 kts 147°
2026-04-19 05:02 61.88701 73.49818 8554 ft 282 kts 169°
2026-04-19 05:02 61.86828 73.49501 8285 ft 265 kts 206°
2026-04-19 05:03 61.85343 73.47481 8187 ft 245 kts 212°
2026-04-19 05:03 61.83726 73.46804 8037 ft 237 kts 172°
2026-04-19 05:03 61.82195 73.47570 7919 ft 219 kts 165°
2026-04-19 05:03 61.80740 73.48400 7457 ft 219 kts 164°
2026-04-19 05:04 61.79288 73.49249 7134 ft 213 kts 163°
2026-04-19 05:04 61.77886 73.50080 6895 ft 205 kts 163°
2026-04-19 05:04 61.76528 73.50891 6679 ft 202 kts 163°
2026-04-19 05:04 61.75191 73.51695 6472 ft 203 kts 163°
2026-04-19 05:05 61.73831 73.52514 6264 ft 203 kts 163°
2026-04-19 05:05 61.72472 73.53337 6054 ft 204 kts 163°
2026-04-19 05:05 61.71107 73.54163 5845 ft 204 kts 163°
2026-04-19 05:05 61.69742 73.54990 5637 ft 204 kts 163°
2026-04-19 05:06 61.68373 73.55821 5421 ft 204 kts 163°
2026-04-19 05:06 61.67012 73.56646 5238 ft 204 kts 163°
2026-04-19 05:06 61.65653 73.57470 5027 ft 202 kts 163°
2026-04-19 05:06 61.64305 73.58286 4810 ft 201 kts 163°
2026-04-19 05:07 61.62974 73.59093 4611 ft 195 kts 163°
2026-04-19 05:07 61.61681 73.59875 4415 ft 193 kts 162°
2026-04-19 05:07 61.60395 73.60655 4246 ft 190 kts 163°
2026-04-19 05:07 61.59148 73.61408 4033 ft 183 kts 162°
2026-04-19 05:08 61.57965 73.62122 3873 ft 176 kts 162°
2026-04-19 05:08 61.55632 73.63529 3516 ft 171 kts 162°
2026-04-19 05:08 61.54501 73.64212 3316 ft 167 kts 162°
2026-04-19 05:09 61.53398 73.64878 3161 ft 165 kts 162°
2026-04-19 05:09 61.52295 73.65543 2988 ft 165 kts 162°
2026-04-19 05:09 61.51187 73.66211 2817 ft 165 kts 162°
2026-04-19 05:09 61.50122 73.66851 2669 ft 155 kts 162°
2026-04-19 05:10 61.49099 73.67466 2475 ft 151 kts 162°
2026-04-19 05:10 61.48093 73.68070 2349 ft 150 kts 162°
2026-04-19 05:10 61.47082 73.68633 2338 ft 152 kts 171°
2026-04-19 05:10 61.46116 73.67955 2182 ft 149 kts 236°
2026-04-19 05:11 61.45682 73.66050 2177 ft 146 kts 251°
2026-04-19 05:11 61.45259 73.64118 2161 ft 145 kts 250°
2026-04-19 05:11 61.44830 73.62210 2145 ft 145 kts 249°
2026-04-19 05:11 61.44394 73.60301 2157 ft 146 kts 248°
2026-04-19 05:12 61.43957 73.58408 2168 ft 147 kts 248°
2026-04-19 05:12 61.43507 73.56479 2156 ft 148 kts 248°
2026-04-19 05:12 61.43053 73.54552 2146 ft 145 kts 248°
2026-04-19 05:12 61.42609 73.52683 2151 ft 142 kts 248°
2026-04-19 05:13 61.42171 73.50851 2151 ft 141 kts 247°
2026-04-19 05:13 61.41731 73.49020 2161 ft 141 kts 247°
2026-04-19 05:13 61.41288 73.47180 2164 ft 142 kts 247°
2026-04-19 05:13 61.40846 73.45348 2170 ft 143 kts 247°
2026-04-19 05:14 61.40392 73.43476 2172 ft 145 kts 247°
2026-04-19 05:14 61.39932 73.41587 2169 ft 147 kts 247°
2026-04-19 05:14 61.39468 73.39686 2165 ft 147 kts 247°
2026-04-19 05:14 61.39003 73.37783 2163 ft 148 kts 247°
2026-04-19 05:15 61.38535 73.35877 2158 ft 148 kts 246°
2026-04-19 05:15 61.38068 73.33975 2158 ft 147 kts 246°
2026-04-19 05:15 61.37603 73.32083 2157 ft 146 kts 246°
2026-04-19 05:15 61.37139 73.30199 2157 ft 146 kts 246°
2026-04-19 05:16 61.36675 73.28316 2156 ft 145 kts 246°
2026-04-19 05:16 61.36216 73.26458 2179 ft 141 kts 246°
2026-04-19 05:16 61.35771 73.24660 2154 ft 141 kts 246°
2026-04-19 05:16 61.35319 73.22833 2153 ft 141 kts 246°
2026-04-19 05:17 61.34863 73.20984 2177 ft 146 kts 246°
2026-04-19 05:17 61.34397 73.19104 2175 ft 147 kts 246°
2026-04-19 05:17 61.33922 73.17184 2176 ft 149 kts 246°
2026-04-19 05:17 61.33450 73.15280 2156 ft 147 kts 246°
2026-04-19 05:18 61.32982 73.13402 2152 ft 146 kts 246°
2026-04-19 05:18 61.32512 73.11512 2144 ft 148 kts 246°
2026-04-19 05:18 61.32041 73.09626 2142 ft 146 kts 246°
2026-04-19 05:18 61.31576 73.07767 2132 ft 144 kts 246°
2026-04-19 05:19 61.31118 73.05934 2142 ft 142 kts 246°
2026-04-19 05:19 61.30671 73.04111 2136 ft 140 kts 251°
2026-04-19 05:19 61.30718 73.02298 2147 ft 129 kts 315°
2026-04-19 05:19 61.31527 73.01858 2143 ft 128 kts 24°
2026-04-19 05:20 61.32037 73.03335 2180 ft 132 kts 62°
2026-04-19 05:20 61.32564 73.04881 2153 ft 130 kts 47°
2026-04-19 05:20 61.33143 73.06316 2147 ft 128 kts 45°
2026-04-19 05:20 61.33744 73.07687 2139 ft 128 kts 44°
2026-04-19 05:21 61.34266 73.09208 2034 ft 135 kts 69°
2026-04-19 05:21 61.34345 73.10521 1984 ft 137 kts 87°
2026-04-19 05:21 61.34333 73.13146 1868 ft 136 kts 85°
2026-04-19 05:21 61.34318 73.15077 1852 ft 131 kts 86°
2026-04-19 05:22 61.34312 73.16345 1857 ft 128 kts 85°
2026-04-19 05:22 61.34314 73.18178 1828 ft 125 kts 85°
2026-04-19 05:22 61.34319 73.19991 1832 ft 128 kts 85°
2026-04-19 05:22 61.34325 73.21819 1831 ft 125 kts 84°
2026-04-19 05:23 61.34361 73.23664 1706 ft 130 kts 84°
2026-04-19 05:23 61.34339 73.25555 1530 ft 131 kts 87°
2026-04-19 05:23 61.34349 73.27416 1341 ft 126 kts 85°
2026-04-19 05:23 61.34357 73.29234 1145 ft 126 kts 86°
2026-04-19 05:24 61.34362 73.31076 941 ft 127 kts 87°
2026-04-19 05:24 61.34366 73.32909 738 ft 125 kts 86°
2026-04-19 05:24 61.34374 73.34725 570 ft 125 kts 86°
2026-04-19 05:24 61.34376 73.36549 395 ft 126 kts 86°
2026-04-19 05:25 61.34378 73.38409 177 ft 129 kts 87°
2026-04-19 05:25 61.34386 73.40130 117 ft 99 kts 88°
2026-04-19 05:25 61.34385 73.40778 119 ft 18 kts 95°
2026-04-19 05:25 61.34338 73.40943 123 ft 11 kts 168°
2026-04-19 05:26 61.34217 73.40952 122 ft 18 kts 182°
2026-04-19 05:26 61.34175 73.40858 121 ft 9 kts 259°
2026-04-19 05:26 61.34172 73.40734 123 ft 9 kts 268°
2026-04-19 05:26 61.34172 73.40605 120 ft 7 kts 271°
2026-04-19 05:27 61.34171 73.40494 121 ft 8 kts 269°
2026-04-19 05:27 61.34163 73.40379 120 ft 8 kts 237°
2026-04-19 05:27 61.34117 73.40348 121 ft 0 kts 182°
2026-04-19 05:27 61.34107 73.40347 121 ft 0 kts 182°
2026-04-19 05:28 61.34112 73.40347 119 ft 0 kts 180°